Hagerstown, MD

9:03 AM EST on November 22, 2017 (GMT -0500)
Hagerstown Regional-Henson

Weather History for KHGR - January, 2014

Change the Weather History Date:

Monday, January 6, 2014

  Actual Average Record
Temperature  
Mean Temperature 21 °F 30 °F  
Max Temperature 39 °F 38 °F 64 °F (1998)
Min Temperature 3 °F 23 °F 3 °F (2014)
Degree Days  
Heating Degree Days 44 34  
Month to date heating degree days 204  
Since 1 July heating degree days 2168  
Cooling Degree Days 0 0  
Month to date cooling degree days 0  
Year to date cooling degree days 0  
Moisture  
Dew Point 22 °F    
Average Humidity 76    
Maximum Humidity 100    
Minimum Humidity 41    
Precipitation  
Precipitation 0.13 in 0.10 in 0.43 in (2002)
Month to date precipitation 0.56  
Year to date precipitation 0.56  
Sea Level Pressure  
Sea Level Pressure 29.69 in    
Wind  
Wind Speed 12 mph (West)    
Max Wind Speed 31 mph    
Max Gust Speed 40 mph    
Visibility 6 miles    
Events Fog , Rain    
T = Trace of Precipitation, MM = Missing Value Source: NWS Daily Summary

Daily Weather History Graph

Daily Weather History Graph

Search for Another Location

Airport or City:

Trip Planner

Search our weather history database for the weather conditions in past years. The results will help you decide how hot, cold, wet, or windy it might be!

Date:

Astronomy

Jan. 06, 2014 Rise Set
Actual Time 7:32 AM EST 5:01 PM EST
Civil Twilight 7:02 AM EST 5:31 PM EST
Nautical Twilight 6:28 AM EST 6:05 PM EST
Astronomical Twilight 5:55 AM EST 6:38 PM EST
Moon 10:47 AM EST (1/6) 11:31 PM EST (1/6)
Length of Visible Light 10h 29m
Length of Day
9h 29m
Waxing Crescent, 34% of the Moon is Illuminated
Jan 6
Waxing Crescent
Jan 7
First Quarter
Jan 15
Full
Jan 24
Last Quarter
Jan 30
New

Hourly Weather History & Observations

Time (EST) Temp. Windchill Dew Point Humidity Pressure Visibility Wind Dir Wind Speed Gust Speed Precip Events Conditions
12:02 AM 33.1 °F 26.9 °F 32.0 °F 96% 29.62 in 0.2 mi WNW 6.9 mph - N/A Fog Fog
12:53 AM 33.1 °F - 33.1 °F 100% 29.63 in 0.2 mi Calm Calm - N/A Fog Fog
1:11 AM 37.0 °F 31.0 °F 37.0 °F 100% 29.57 in 0.8 mi South 8.1 mph - N/A   Mist
1:31 AM 35.1 °F 31.0 °F 35.1 °F 100% 29.54 in 0.2 mi South 4.6 mph - N/A Fog Fog
1:49 AM 37.4 °F 29.8 °F 37.4 °F 100% 29.54 in 0.8 mi South 11.5 mph - N/A   Mist
1:53 AM 37.0 °F 30.4 °F 37.0 °F 100% 29.59 in 1.8 mi South 9.2 mph - N/A   Overcast
2:00 AM 37.9 °F 32.1 °F 37.0 °F 97% 29.53 in 2.5 mi South 8.1 mph - N/A   Overcast
2:09 AM 37.0 °F 31.6 °F 37.0 °F 100% 29.53 in 3.0 mi South 6.9 mph - N/A   Overcast
2:53 AM 37.0 °F 31.0 °F 37.0 °F 100% 29.55 in 7.0 mi South 8.1 mph - N/A   Mostly Cloudy
3:53 AM 37.9 °F 31.5 °F 37.0 °F 97% 29.53 in 8.0 mi SSE 9.2 mph - N/A   Overcast
4:39 AM 36.0 °F 29.6 °F 36.0 °F 100% 29.46 in 1.8 mi NW 8.1 mph - 0.04 in Rain Light Rain
4:50 AM 35.6 °F 31.7 °F 33.8 °F 93% 29.47 in 0.5 mi WNW 4.6 mph - 0.04 in Fog , Rain Light Rain
4:53 AM 35.1 °F 28.6 °F 34.0 °F 96% 29.52 in 0.5 mi NW 8.1 mph - 0.04 in Fog Fog
5:00 AM 35.1 °F 24.1 °F 35.1 °F 100% 29.51 in 0.5 mi WNW 19.6 mph 24.2 mph 0.01 in Fog , Rain Light Rain
5:13 AM 36.0 °F 31.1 °F 36.0 °F 100% 29.52 in 2.0 mi WNW 5.8 mph - 0.06 in Rain Rain
5:24 AM 36.0 °F 32.1 °F 36.0 °F 100% 29.50 in 1.8 mi NNW 4.6 mph - 0.07 in Rain Light Rain
5:30 AM 37.0 °F - 36.0 °F 96% 29.51 in 3.0 mi Calm Calm - 0.07 in Rain Light Rain
5:53 AM 39.0 °F - 37.0 °F 93% 29.57 in 7.0 mi Calm Calm - 0.09 in Rain Light Rain
6:53 AM 39.9 °F 34.5 °F 37.0 °F 89% 29.58 in 10.0 mi WSW 8.1 mph - 0.00 in   Overcast
7:53 AM 39.9 °F 29.5 °F 30.0 °F 68% 29.61 in 10.0 mi West 24.2 mph 29.9 mph N/A   Overcast
8:53 AM 36.0 °F 23.5 °F 24.1 °F 62% 29.70 in 10.0 mi WNW 27.6 mph 35.7 mph N/A   Overcast
9:53 AM 35.1 °F 23.8 °F 23.0 °F 61% 29.73 in 10.0 mi WNW 20.7 mph 27.6 mph N/A   Mostly Cloudy
10:53 AM 33.1 °F 20.3 °F 21.0 °F 61% 29.73 in 10.0 mi WNW 24.2 mph 28.8 mph N/A   Scattered Clouds
11:53 AM 34.0 °F 20.5 °F 19.0 °F 54% 29.70 in 10.0 mi West 28.8 mph 34.5 mph N/A   Partly Cloudy
12:53 PM 33.1 °F 20.1 °F 17.1 °F 52% 29.72 in 10.0 mi West 25.3 mph 32.2 mph N/A   Clear
1:53 PM 30.0 °F 16.3 °F 15.1 °F 54% 29.72 in 10.0 mi WNW 24.2 mph 29.9 mph N/A   Mostly Cloudy
2:53 PM 30.0 °F 18.7 °F 15.1 °F 54% 29.74 in 10.0 mi WNW 16.1 mph 26.5 mph N/A   Overcast
3:53 PM 28.0 °F 13.9 °F 12.0 °F 51% 29.75 in 10.0 mi West 23.0 mph 32.2 mph N/A   Scattered Clouds
4:53 PM 24.1 °F 9.8 °F 10.0 °F 55% 29.83 in 10.0 mi West 19.6 mph 26.5 mph N/A   Mostly Cloudy
5:53 PM 19.0 °F -0.3 °F 1.9 °F 47% 29.88 in 10.0 mi West 31.1 mph 40.3 mph N/A   Mostly Cloudy
6:53 PM 14.0 °F -6.5 °F -4.0 °F 45% 29.96 in 10.0 mi WNW 28.8 mph 38.0 mph N/A   Clear
7:53 PM 9.0 °F -12.2 °F -9.0 °F 44% 30.03 in 10.0 mi WNW 25.3 mph 35.7 mph N/A   Partly Cloudy
8:53 PM 7.0 °F -14.5 °F -9.9 °F 46% 30.06 in 10.0 mi WNW 24.2 mph 29.9 mph N/A   Clear
9:53 PM 5.0 °F -19.0 °F -14.1 °F 41% 30.07 in 10.0 mi WNW 29.9 mph 39.1 mph N/A   Clear
10:53 PM 3.9 °F -18.1 °F -14.1 °F 43% 30.11 in 10.0 mi WNW 23.0 mph 34.5 mph N/A   Clear
11:53 PM 3.0 °F -18.3 °F -11.9 °F 50% 30.13 in 10.0 mi West 20.7 mph 27.6 mph N/A   Mostly Cloudy